User: anonymous   Login
Location: Unspecified
(0.0000°N, 0.0000°E)
Time: 20:36:32
(UTC+00:00)
Language:

NOSS 7 (A) - Orbit

View from above orbital plane
View from above orbital plane
View from above satellite
View from above satellite

Ground track
Ground track

The orbit data is extracted from the following two-line orbital elements,

1 16591U 86014A   20010.68721141 0.00001400  00000-0  99657-4 0    02
2 16591  63.2846 218.1154 0937109  66.4558 293.5442 13.50167256    03
Epoch (UTC): 10 January 2020 16:29:35
Eccentricity: 0.0937109
inclination: 63.2846°
perigee height: 373 km
apogee height: 1770 km
right ascension of ascending node: 218.1154°
argument of perigee: 66.4558°
revolutions per day: 13.50167256
mean anomaly at epoch: 293.5442°
orbit number at epoch: 0

The dashed part of the orbit path shows where the satellite is in the earth's shadow,  

DLR